Location: Chacón
(10.5789°N, 66.9317°W)
Time: 14:13:34
(UTC+00:00)

Cosmos 1727 Rocket - Pass Details

Date: 11 August 2024
Orbit: 960 x 997 km, 82.9° (Epoch: 08 September)

Event Time Altitude Azimuth Distance (km) Brightness Sun altitude
Rises 23:23:13 0° 19° (NNE) 3,640 7.0 -9.2°
Reaches altitude 10° 23:26:16 10° 33° (NNE) 2,690 6.2 -9.9°
Maximum altitude 23:31:01 23° 84° (E) 1,899 5.0 -11.0°
Enters shadow 23:34:59 13° 130° (SE) 2,481 5.6 -12.0°
